When you browse on this site, cookies collect data to enhance your experience and personalize the content and advertising you see.
Visit our Privacy Policy to learn more. By continuing to use the site, you agree to this use of cookies and data.
  • In Germany
  • List of Countries
  • For 7 days
  • Water Temperature
  • Satellite Maps
  • Weather Map
  • Weather Widgets
  • user-avatar
    Login

    Hourly Weather Lesniakowizna

    Today, 27 May, Monday

    Time Temperature Precipitation Wind Pressure Humidity
    00:00 +13°C° 0 mm 3 mps 749 mmHg 82%
    01:00 +13°C° 0 mm 3 mps 749 mmHg 84%
    02:00 +13°C° 0 mm 3 mps 749 mmHg 86%
    03:00 +13°C° 0 mm 3 mps 749 mmHg 87%
    04:00 +13°C° 0 mm 3 mps 749 mmHg 89%
    05:00 +16°C° 0 mm 3 mps 749 mmHg 83%
    06:00 +17°C° 0 mm 4 mps 749 mmHg 78%
    07:00 +19°C° 0 mm 4 mps 749 mmHg 72%
    08:00 +21°C° 0.1 mm 4 mps 749 mmHg 66%
    09:00 +22°C° 0.1 mm 5 mps 748 mmHg 60%
    10:00 +25°C° 0.1 mm 5 mps 748 mmHg 54%
    11:00 +25°C° 0.1 mm 5 mps 748 mmHg 52%
    12:00 +26°C° 0.1 mm 5 mps 748 mmHg 51%
    13:00 +26°C° 0.1 mm 5 mps 747 mmHg 50%
    14:00 +26°C° 0.2 mm 5 mps 747 mmHg 52%
    15:00 +26°C° 0.2 mm 5 mps 747 mmHg 54%
    16:00 +26°C° 0.2 mm 4 mps 747 mmHg 56%
    17:00 +23°C° 0.2 mm 4 mps 747 mmHg 62%
    18:00 +22°C° 0.2 mm 3 mps 747 mmHg 69%
    19:00 +21°C° 0.2 mm 3 mps 747 mmHg 76%
    20:00 +20°C° 0 mm 2 mps 747 mmHg 78%
    21:00 +19°C° 0 mm 2 mps 747 mmHg 80%
    22:00 +18°C° 0 mm 2 mps 747 mmHg 83%
    23:00 +18°C° 0.3 mm 2 mps 746 mmHg 85%

    Tomorrow, 28 May, Tuesday

    Time Temperature Precipitation Wind Pressure Humidity
    00:00 +18°C° 0.3 mm 2 mps 746 mmHg 88%
    01:00 +17°C° 0.3 mm 2 mps 746 mmHg 91%
    02:00 +17°C° 0.5 mm 2 mps 745 mmHg 92%
    03:00 +17°C° 0.5 mm 3 mps 745 mmHg 93%
    04:00 +17°C° 0.5 mm 3 mps 745 mmHg 95%
    05:00 +18°C° 0.5 mm 3 mps 744 mmHg 92%
    06:00 +18°C° 0.5 mm 3 mps 744 mmHg 89%
    07:00 +19°C° 0.5 mm 2 mps 744 mmHg 86%
    08:00 +20°C° 0.3 mm 3 mps 744 mmHg 83%
    09:00 +21°C° 0.3 mm 3 mps 744 mmHg 79%
    10:00 +22°C° 0.3 mm 4 mps 744 mmHg 75%
    11:00 +23°C° 0.5 mm 4 mps 743 mmHg 72%
    12:00 +23°C° 0.5 mm 4 mps 743 mmHg 69%
    13:00 +25°C° 0.5 mm 5 mps 743 mmHg 65%
    14:00 +23°C° 1.5 mm 4 mps 743 mmHg 71%
    15:00 +22°C° 1.5 mm 3 mps 743 mmHg 76%
    16:00 +21°C° 1.5 mm 2 mps 743 mmHg 81%
    17:00 +20°C° 0.9 mm 2 mps 744 mmHg 82%
    18:00 +20°C° 0.9 mm 2 mps 744 mmHg 83%
    19:00 +20°C° 0.9 mm 1 mps 744 mmHg 84%
    20:00 +18°C° 0.7 mm 2 mps 745 mmHg 87%
    21:00 +17°C° 0.7 mm 3 mps 745 mmHg 90%
    22:00 +15°C° 0.7 mm 4 mps 745 mmHg 93%
    23:00 +14°C° 0.1 mm 4 mps 746 mmHg 93%

    Day after tomorrow, 29 May, Wednesday

    Time Temperature Precipitation Wind Pressure Humidity
    00:00 +13°C° 0.1 mm 5 mps 746 mmHg 92%
    01:00 +12°C° 0.1 mm 5 mps 747 mmHg 92%
    02:00 +12°C° 0 mm 5 mps 747 mmHg 91%
    03:00 +10°C° 0 mm 5 mps 748 mmHg 90%
    04:00 +9°C° 0 mm 5 mps 748 mmHg 88%
    05:00 +9°C° 0.1 mm 5 mps 749 mmHg 87%
    06:00 +9°C° 0.1 mm 5 mps 749 mmHg 86%
    07:00 +10°C° 0.1 mm 4 mps 750 mmHg 85%
    08:00 +10°C° 0 mm 4 mps 750 mmHg 82%
    09:00 +11°C° 0 mm 4 mps 751 mmHg 80%
    10:00 +11°C° 0 mm 4 mps 752 mmHg 78%
    11:00 +12°C° 0 mm 4 mps 752 mmHg 75%
    12:00 +13°C° 0 mm 4 mps 752 mmHg 71%
    13:00 +14°C° 0 mm 3 mps 752 mmHg 68%
    14:00 +14°C° 0 mm 3 mps 753 mmHg 67%
    15:00 +16°C° 0 mm 3 mps 753 mmHg 66%
    16:00 +16°C° 0 mm 3 mps 753 mmHg 66%
    17:00 +16°C° 0 mm 3 mps 753 mmHg 68%
    18:00 +14°C° 0 mm 3 mps 753 mmHg 70%
    19:00 +14°C° 0 mm 3 mps 753 mmHg 72%
    20:00 +13°C° 0 mm 3 mps 754 mmHg 72%
    21:00 +12°C° 0 mm 3 mps 754 mmHg 73%
    22:00 +11°C° 0 mm 3 mps 755 mmHg 74%
    23:00 +10°C° 0 mm 3 mps 755 mmHg 75%

    30 May, Thursday

    Time Temperature Precipitation Wind Pressure Humidity
    00:00 +9°C° 0 mm 3 mps 755 mmHg 77%
    01:00 +8°C° 0 mm 3 mps 755 mmHg 78%
    02:00 +8°C° 0 mm 3 mps 755 mmHg 78%
    03:00 +7°C° 0 mm 3 mps 755 mmHg 78%
    04:00 +7°C° 0 mm 3 mps 755 mmHg 77%
    05:00 +8°C° 0 mm 2 mps 755 mmHg 74%
    06:00 +9°C° 0 mm 2 mps 755 mmHg 70%
    07:00 +12°C° 0 mm 2 mps 755 mmHg 67%
    08:00 +12°C° 0 mm 2 mps 755 mmHg 68%
    09:00 +12°C° 0 mm 2 mps 755 mmHg 70%
    10:00 +13°C° 0 mm 2 mps 755 mmHg 72%
    11:00 +13°C° 0 mm 2 mps 755 mmHg 70%
    12:00 +14°C° 0 mm 2 mps 755 mmHg 68%
    13:00 +14°C° 0 mm 2 mps 755 mmHg 66%
    14:00 +15°C° 0 mm 2 mps 755 mmHg 62%
    15:00 +16°C° 0 mm 2 mps 755 mmHg 59%
    16:00 +18°C° 0 mm 1 mps 755 mmHg 56%
    17:00 +18°C° 0 mm 1 mps 755 mmHg 60%
    18:00 +16°C° 0 mm 1 mps 755 mmHg 63%
    19:00 +15°C° 0 mm 1 mps 755 mmHg 67%
    20:00 +14°C° 0 mm 1 mps 755 mmHg 69%
    21:00 +13°C° 0 mm 1 mps 755 mmHg 70%
    22:00 +12°C° 0 mm 1 mps 755 mmHg 72%
    23:00 +11°C° 0 mm 1 mps 754 mmHg 74%

    31 May, Friday

    Time Temperature Precipitation Wind Pressure Humidity
    00:00 +11°C° 0 mm 1 mps 754 mmHg 75%
    01:00 +11°C° 0 mm 1 mps 754 mmHg 76%
    02:00 +10°C° 0 mm 1 mps 754 mmHg 78%
    03:00 +10°C° 0 mm 1 mps 753 mmHg 80%
    04:00 +10°C° 0 mm 1 mps 753 mmHg 81%
    05:00 +12°C° 0 mm 1 mps 753 mmHg 77%
    06:00 +14°C° 0 mm 2 mps 753 mmHg 74%
    07:00 +15°C° 0 mm 2 mps 752 mmHg 70%
    08:00 +17°C° 0 mm 3 mps 752 mmHg 65%
    09:00 +18°C° 0 mm 3 mps 751 mmHg 59%
    10:00 +20°C° 0 mm 3 mps 751 mmHg 54%
    11:00 +21°C° 0 mm 3 mps 751 mmHg 51%
    12:00 +22°C° 0 mm 3 mps 750 mmHg 49%
    13:00 +24°C° 0 mm 3 mps 750 mmHg 47%
    14:00 +22°C° 0.6 mm 5 mps 750 mmHg 56%
    15:00 +21°C° 0.6 mm 6 mps 751 mmHg 65%
    16:00 +18°C° 0.6 mm 7 mps 751 mmHg 74%
    17:00 +15°C° 0.1 mm 7 mps 752 mmHg 77%
    18:00 +11°C° 0.1 mm 8 mps 753 mmHg 79%
    19:00 +7°C° 0.1 mm 8 mps 754 mmHg 82%
    20:00 +8°C° 0 mm 7 mps 755 mmHg 79%
    21:00 +8°C° 0 mm 6 mps 756 mmHg 76%
    22:00 +8°C° 0 mm 5 mps 756 mmHg 73%
    23:00 +8°C° 0 mm 5 mps 757 mmHg 72%

    1 June, Saturday

    Time Temperature Precipitation Wind Pressure Humidity
    00:00 +7°C° 0 mm 5 mps 757 mmHg 71%
    01:00 +7°C° 0 mm 5 mps 758 mmHg 71%
    02:00 +6°C° 0 mm 5 mps 758 mmHg 71%
    03:00 +6°C° 0 mm 4 mps 758 mmHg 71%
    04:00 +5°C° 0 mm 4 mps 759 mmHg 72%
    05:00 +6°C° 0 mm 4 mps 759 mmHg 68%
    06:00 +8°C° 0 mm 4 mps 759 mmHg 65%
    07:00 +10°C° 0 mm 4 mps 760 mmHg 62%
    08:00 +12°C° 0 mm 5 mps 760 mmHg 56%
    09:00 +13°C° 0 mm 5 mps 760 mmHg 51%
    10:00 +14°C° 0 mm 5 mps 760 mmHg 46%
    11:00 +15°C° 0 mm 5 mps 760 mmHg 45%
    12:00 +16°C° 0 mm 5 mps 760 mmHg 45%
    13:00 +16°C° 0 mm 5 mps 760 mmHg 44%
    14:00 +16°C° 0 mm 5 mps 760 mmHg 46%
    15:00 +16°C° 0 mm 5 mps 760 mmHg 48%
    16:00 +16°C° 0 mm 5 mps 760 mmHg 50%
    17:00 +15°C° 0 mm 4 mps 761 mmHg 54%
    18:00 +14°C° 0 mm 4 mps 761 mmHg 58%
    19:00 +13°C° 0 mm 3 mps 761 mmHg 61%
    20:00 +11°C° 0 mm 3 mps 761 mmHg 65%
    21:00 +10°C° 0 mm 3 mps 762 mmHg 68%
    22:00 +9°C° 0 mm 3 mps 762 mmHg 71%
    23:00 +8°C° 0 mm 3 mps 762 mmHg 72%
    Show more